Time,TemperatureF,DewpointF,PressureIn,WindDirection,WindDirectionDegrees,WindSpeedMPH,WindSpeedGustMPH,Humidity,HourlyPrecipIn,Conditions,Clouds,dailyrainin,SoftwareType,DateUTC
2013-01-19 00:02:00,16.0,15.0,-100.00,SE,145,2.0,2.0,99,-99.99,,,-99.99,,2013-01-19 06:02:00,
2013-01-19 00:10:00,15.0,15.0,-100.00,SE,135,0.0,0.0,99,-99.99,,,-99.99,,2013-01-19 06:10:00,
2013-01-19 00:33:00,15.0,15.0,-100.00,SE,135,0.0,0.0,99,-99.99,,,-99.99,,2013-01-19 06:33:00,
2013-01-19 00:43:00,15.0,15.0,-100.00,SE,135,0.0,0.0,99,-99.99,,,-99.99,,2013-01-19 06:43:00,
2013-01-19 00:53:00,15.0,15.0,-100.00,SE,135,0.0,0.0,99,-99.99,,,-99.99,,2013-01-19 06:53:00,
2013-01-19 01:02:00,15.0,15.0,-100.00,SE,135,0.0,0.0,99,-99.99,,,-99.99,,2013-01-19 07:02:00,
2013-01-19 01:10:00,15.0,15.0,-100.00,SE,135,3.0,3.0,99,-99.99,,,-99.99,,2013-01-19 07:10:00,
2013-01-19 01:33:00,15.0,15.0,-100.00,SE,135,3.0,3.0,99,-99.99,,,-99.99,,2013-01-19 07:33:00,
2013-01-19 01:43:00,15.0,15.0,-100.00,SE,135,3.0,3.0,99,-99.99,,,-99.99,,2013-01-19 07:43:00,
2013-01-19 01:53:00,15.0,15.0,-100.00,SE,135,3.0,3.0,99,-99.99,,,-99.99,,2013-01-19 07:53:00,
2013-01-19 02:02:00,15.0,15.0,-100.00,SE,135,3.0,3.0,99,-99.99,,,-99.99,,2013-01-19 08:02:00,
2013-01-19 02:10:00,15.0,15.0,-100.00,South,175,6.0,6.0,99,-99.99,,,-99.99,,2013-01-19 08:10:00,
2013-01-19 02:33:00,15.0,15.0,-100.00,South,175,6.0,6.0,99,-99.99,,,-99.99,,2013-01-19 08:33:00,
2013-01-19 02:43:00,15.0,15.0,-100.00,South,175,6.0,6.0,99,-99.99,,,-99.99,,2013-01-19 08:43:00,
2013-01-19 02:53:00,15.0,15.0,-100.00,South,175,6.0,6.0,99,-99.99,,,-99.99,,2013-01-19 08:53:00,
2013-01-19 03:02:00,15.0,15.0,-100.00,South,175,6.0,6.0,99,-99.99,,,-99.99,,2013-01-19 09:02:00,
2013-01-19 03:33:00,15.0,14.0,-100.00,South,175,6.0,6.0,99,-99.99,,,-99.99,,2013-01-19 09:33:00,
2013-01-19 03:43:00,15.0,14.0,-100.00,South,175,6.0,6.0,99,-99.99,,,-99.99,,2013-01-19 09:43:00,
2013-01-19 03:53:00,15.0,14.0,-100.00,South,175,6.0,6.0,99,-99.99,,,-99.99,,2013-01-19 09:53:00,
2013-01-19 04:02:00,15.0,14.0,-100.00,South,175,6.0,6.0,99,-99.99,,,-99.99,,2013-01-19 10:02:00,
2013-01-19 04:33:00,15.0,14.0,-100.00,SSW,210,2.0,2.0,99,-99.99,,,-99.99,,2013-01-19 10:33:00,
2013-01-19 04:43:00,15.0,14.0,-100.00,SSW,210,2.0,2.0,99,-99.99,,,-99.99,,2013-01-19 10:43:00,
2013-01-19 04:53:00,15.0,14.0,-100.00,SSW,210,2.0,2.0,99,-99.99,,,-99.99,,2013-01-19 10:53:00,
2013-01-19 05:03:00,15.0,14.0,-100.00,SSW,210,2.0,2.0,99,-99.99,,,-99.99,,2013-01-19 11:03:00,
2013-01-19 06:48:00,31.0,29.0,-100.00,NW,310,22.0,24.0,93,-99.99,,,-99.99,,2013-01-19 12:48:00,
2013-01-19 06:53:00,31.0,29.0,-100.00,NW,310,22.0,24.0,93,-99.99,,,-99.99,,2013-01-19 12:53:00,
2013-01-19 07:03:00,31.0,29.0,-100.00,NW,310,22.0,24.0,93,-99.99,,,-99.99,,2013-01-19 13:03:00,
2013-01-19 07:34:00,23.0,21.0,-100.00,NW,315,19.0,24.0,92,-99.99,,,-99.99,,2013-01-19 13:34:00,
2013-01-19 07:43:00,23.0,21.0,-100.00,NW,315,19.0,24.0,92,-99.99,,,-99.99,,2013-01-19 13:43:00,
2013-01-19 07:53:00,23.0,21.0,-100.00,NW,315,19.0,24.0,92,-99.99,,,-99.99,,2013-01-19 13:53:00,
2013-01-19 08:02:00,23.0,21.0,-100.00,NW,315,19.0,24.0,92,-99.99,,,-99.99,,2013-01-19 14:02:00,
2013-01-19 08:10:00,13.0,12.0,-100.00,NNW,340,19.0,22.0,96,-99.99,,,-99.99,,2013-01-19 14:10:00,
2013-01-19 08:34:00,13.0,12.0,-100.00,NNW,340,19.0,22.0,96,-99.99,,,-99.99,,2013-01-19 14:34:00,
2013-01-19 08:43:00,13.0,12.0,-100.00,NNW,340,19.0,22.0,96,-99.99,,,-99.99,,2013-01-19 14:43:00,
2013-01-19 08:53:00,13.0,12.0,-100.00,NNW,340,19.0,22.0,96,-99.99,,,-99.99,,2013-01-19 14:53:00,
2013-01-19 09:03:00,13.0,12.0,-100.00,NNW,340,19.0,22.0,96,-99.99,,,-99.99,,2013-01-19 15:03:00,
2013-01-19 09:10:00,10.0,7.0,-100.00,NW,325,26.0,30.0,89,-99.99,,,-99.99,,2013-01-19 15:10:00,
2013-01-19 09:34:00,10.0,7.0,-100.00,NW,325,26.0,30.0,89,-99.99,,,-99.99,,2013-01-19 15:34:00,
2013-01-19 09:43:00,10.0,7.0,-100.00,NW,325,26.0,30.0,89,-99.99,,,-99.99,,2013-01-19 15:43:00,
2013-01-19 09:53:00,10.0,7.0,-100.00,NW,325,26.0,30.0,89,-99.99,,,-99.99,,2013-01-19 15:53:00,
2013-01-19 10:03:00,10.0,7.0,-100.00,NW,325,26.0,30.0,89,-99.99,,,-99.99,,2013-01-19 16:03:00,
2013-01-19 10:10:00,8.0,5.0,-100.00,NW,320,29.0,32.0,87,-99.99,,,-99.99,,2013-01-19 16:10:00,
2013-01-19 10:33:00,8.0,5.0,-100.00,NW,320,29.0,32.0,87,-99.99,,,-99.99,,2013-01-19 16:33:00,
2013-01-19 10:43:00,8.0,5.0,-100.00,NW,320,29.0,32.0,87,-99.99,,,-99.99,,2013-01-19 16:43:00,
2013-01-19 10:54:00,8.0,5.0,-100.00,NW,320,29.0,32.0,87,-99.99,,,-99.99,,2013-01-19 16:54:00,
2013-01-19 11:03:00,8.0,5.0,-100.00,NW,320,29.0,32.0,87,-99.99,,,-99.99,,2013-01-19 17:03:00,
2013-01-19 11:09:00,8.0,4.0,-100.00,WSW,240,19.0,22.0,84,-99.99,,,-99.99,,2013-01-19 17:09:00,
2013-01-19 11:38:00,8.0,4.0,-100.00,WSW,240,19.0,22.0,84,-99.99,,,-99.99,,2013-01-19 17:38:00,
2013-01-19 11:50:00,8.0,4.0,-100.00,WSW,240,19.0,22.0,84,-99.99,,,-99.99,,2013-01-19 17:50:00,
2013-01-19 12:10:00,4.0,1.0,-100.00,NW,325,28.0,33.0,86,-99.99,,,-99.99,,2013-01-19 18:10:00,
2013-01-19 12:38:00,4.0,1.0,-100.00,NW,325,28.0,33.0,86,-99.99,,,-99.99,,2013-01-19 18:38:00,
2013-01-19 12:47:00,4.0,1.0,-100.00,NW,325,28.0,33.0,86,-99.99,,,-99.99,,2013-01-19 18:47:00,
2013-01-19 13:07:00,4.0,1.0,-100.00,NW,325,28.0,33.0,86,-99.99,,,-99.99,,2013-01-19 19:07:00,
2013-01-19 13:11:00,1.0,-4.0,-100.00,NW,325,29.0,35.0,81,-99.99,,,-99.99,,2013-01-19 19:11:00,
2013-01-19 13:40:00,1.0,-4.0,-100.00,NW,325,29.0,35.0,81,-99.99,,,-99.99,,2013-01-19 19:40:00,
2013-01-19 13:49:00,1.0,-4.0,-100.00,NW,325,29.0,35.0,81,-99.99,,,-99.99,,2013-01-19 19:49:00,
2013-01-19 14:09:00,1.0,-4.0,-100.00,NW,325,29.0,35.0,81,-99.99,,,-99.99,,2013-01-19 20:09:00,
2013-01-19 14:10:00,0.0,-4.0,-100.00,NW,325,31.0,35.0,83,-99.99,,,-99.99,,2013-01-19 20:10:00,
2013-01-19 14:39:00,0.0,-4.0,-100.00,NW,325,31.0,35.0,83,-99.99,,,-99.99,,2013-01-19 20:39:00,
2013-01-19 14:50:00,0.0,-4.0,-100.00,NW,325,31.0,35.0,83,-99.99,,,-99.99,,2013-01-19 20:50:00,
2013-01-19 14:59:00,0.0,-4.0,-100.00,NW,325,31.0,35.0,83,-99.99,,,-99.99,,2013-01-19 20:59:00,
2013-01-19 15:06:00,0.0,-4.0,-100.00,NW,325,31.0,35.0,83,-99.99,,,-99.99,,2013-01-19 21:06:00,
2013-01-19 15:09:00,1.0,-2.0,-100.00,NW,325,24.0,27.0,87,-99.99,,,-99.99,,2013-01-19 21:09:00,
2013-01-19 15:47:00,1.0,-2.0,-100.00,NW,325,24.0,27.0,87,-99.99,,,-99.99,,2013-01-19 21:47:00,
2013-01-19 15:53:00,1.0,-2.0,-100.00,NW,325,24.0,27.0,87,-99.99,,,-99.99,,2013-01-19 21:53:00,
2013-01-19 16:00:00,1.0,-2.0,-100.00,NW,325,24.0,27.0,87,-99.99,,,-99.99,,2013-01-19 22:00:00,
2013-01-19 16:10:00,1.0,-2.0,-100.00,NW,320,24.0,29.0,89,-99.99,,,-99.99,,2013-01-19 22:10:00,
2013-01-19 16:36:00,1.0,-2.0,-100.00,NW,320,24.0,29.0,89,-99.99,,,-99.99,,2013-01-19 22:36:00,
2013-01-19 16:49:00,1.0,-2.0,-100.00,NW,320,24.0,29.0,89,-99.99,,,-99.99,,2013-01-19 22:49:00,
2013-01-19 16:58:00,1.0,-2.0,-100.00,NW,320,24.0,29.0,89,-99.99,,,-99.99,,2013-01-19 22:58:00,
2013-01-19 17:11:00,-1.0,-5.0,-100.00,NW,325,23.0,27.0,84,-99.99,,,-99.99,,2013-01-19 23:11:00,
2013-01-19 17:35:00,-1.0,-5.0,-100.00,NW,325,23.0,27.0,84,-99.99,,,-99.99,,2013-01-19 23:35:00,
2013-01-19 17:50:00,-1.0,-5.0,-100.00,NW,325,23.0,27.0,84,-99.99,,,-99.99,,2013-01-19 23:50:00,
2013-01-19 18:07:00,-1.0,-5.0,-100.00,NW,325,23.0,27.0,84,-99.99,,,-99.99,,2013-01-20 00:07:00,
2013-01-19 18:38:00,-2.0,-6.0,-100.00,NW,325,20.0,27.0,83,-99.99,,,-99.99,,2013-01-20 00:38:00,
2013-01-19 18:48:00,-2.0,-6.0,-100.00,NW,325,20.0,27.0,83,-99.99,,,-99.99,,2013-01-20 00:48:00,
2013-01-19 18:56:00,-2.0,-6.0,-100.00,NW,325,20.0,27.0,83,-99.99,,,-99.99,,2013-01-20 00:56:00,
2013-01-19 19:04:00,-2.0,-6.0,-100.00,NW,325,20.0,27.0,83,-99.99,,,-99.99,,2013-01-20 01:04:00,
2013-01-19 19:10:00,-3.0,-7.0,-100.00,NW,325,16.0,19.0,83,-99.99,,,-99.99,,2013-01-20 01:10:00,
2013-01-19 19:39:00,-3.0,-7.0,-100.00,NW,325,16.0,19.0,83,-99.99,,,-99.99,,2013-01-20 01:39:00,
2013-01-19 19:51:00,-3.0,-7.0,-100.00,NW,325,16.0,19.0,83,-99.99,,,-99.99,,2013-01-20 01:51:00,
2013-01-19 20:04:00,-3.0,-7.0,-100.00,NW,325,16.0,19.0,83,-99.99,,,-99.99,,2013-01-20 02:04:00,
2013-01-19 20:38:00,-4.0,-8.0,-100.00,NW,325,12.0,16.0,83,-99.99,,,-99.99,,2013-01-20 02:38:00,
2013-01-19 20:45:00,-4.0,-8.0,-100.00,NW,325,12.0,16.0,83,-99.99,,,-99.99,,2013-01-20 02:45:00,
2013-01-19 20:59:00,-4.0,-8.0,-100.00,NW,325,12.0,16.0,83,-99.99,,,-99.99,,2013-01-20 02:59:00,
2013-01-19 21:08:00,-4.0,-8.0,-100.00,NW,325,12.0,16.0,83,-99.99,,,-99.99,,2013-01-20 03:08:00,
2013-01-19 21:39:00,-5.0,-8.0,-100.00,NW,315,5.0,6.0,83,-99.99,,,-99.99,,2013-01-20 03:39:00,
2013-01-19 21:47:00,-5.0,-8.0,-100.00,NW,315,5.0,6.0,83,-99.99,,,-99.99,,2013-01-20 03:47:00,
2013-01-19 21:58:00,-5.0,-8.0,-100.00,NW,315,5.0,6.0,83,-99.99,,,-99.99,,2013-01-20 03:58:00,
2013-01-19 22:05:00,-5.0,-8.0,-100.00,NW,315,5.0,6.0,83,-99.99,,,-99.99,,2013-01-20 04:05:00,
2013-01-19 22:38:00,-5.0,-9.0,-100.00,NW,315,9.0,11.0,83,-99.99,,,-99.99,,2013-01-20 04:38:00,
2013-01-19 22:45:00,-5.0,-9.0,-100.00,NW,315,9.0,11.0,83,-99.99,,,-99.99,,2013-01-20 04:45:00,
2013-01-19 22:58:00,-5.0,-9.0,-100.00,NW,315,9.0,11.0,83,-99.99,,,-99.99,,2013-01-20 04:58:00,
2013-01-19 23:04:00,-5.0,-9.0,-100.00,NW,315,9.0,11.0,83,-99.99,,,-99.99,,2013-01-20 05:04:00,
2013-01-19 23:33:00,-6.0,-10.0,-100.00,WNW,290,6.0,6.0,84,-99.99,,,-99.99,,2013-01-20 05:33:00,
2013-01-19 23:43:00,-6.0,-10.0,-100.00,WNW,290,6.0,6.0,84,-99.99,,,-99.99,,2013-01-20 05:43:00,
2013-01-19 23:53:00,-6.0,-10.0,-100.00,WNW,290,6.0,6.0,84,-99.99,,,-99.99,,2013-01-20 05:53:00,